Snowfall_Accumulation
0.0 0.0 0.4 0.0 0.0 0.0 0.0 0.0 1.5 0.0 0.0 0.0 0.0 0.0 0.0 0.0 0.0 0.0 0.0 0.0 0.0 0.0 0.0 0.0 0.0 0.0 0.0 0.0 0.0 0.0 0.0 0.0 0.0 0.0 0.0 0.0 0.0 0.0 0.0 0.0 0.0 0.0 0.0 0.0
0.0 0.4 0.0 0.0 0.0 0.0 0.5 0.5 2.7 0.0 0.0 0.0 0.0 0.0 0.0 0.0 0.0 0.0 0.0 0.0 0.0 0.0 0.0 0.0 0.0 0.0 0.0 0.0 0.0 0.0 0.0 0.0 0.0 0.0 0.0 0.0 0.0 0.0 0.0 0.0 0.0 0.0 0.0 0.0
1.8 0.0 0.0 0.0 0.9 1.0 0.0 3.3 0.4 0.4 0.0 0.0 0.0 0.0 0.0 0.0 0.0 0.0 0.0 0.0 0.0 0.0 0.0 0.0 0.0 0.0 0.0 0.0 0.0 0.0 0.0 0.0 0.0 0.0 0.0 0.0 0.0 0.0 0.0 0.0 0.0 0.0 0.0 0.0
0.0 0.0 0.0 0.0 3.3 0.0 3.7 0.0 0.0 0.0 3.7 6.3 0.0 8.7 0.0 0.0 0.0 0.0 0.0 0.0 0.0 0.0 0.0 0.0 0.0 0.0 0.0 0.0 0.0 0.0 0.0 0.0 0.0 0.0 0.0 0.0 0.0 0.0 0.0 0.0 0.0 0.0 0.0 0.0
0.5 0.0 0.0 0.0 0.4 0.0 4.8 0.0 0.0 0.0 2.9 3.4 0.0 8.3 0.0 0.0 0.0 0.0 0.0 0.0 0.0 0.0 0.0 0.0 0.0 0.0 0.0 0.0 0.0 0.0 0.0 0.0 0.0 0.0 0.0 0.0 0.0 0.0 0.0 0.0 0.0 0.0 0.0 0.0
0.0 0.0 0.0 1.9 0.0 0.0 0.0 0.0 0.0 0.2 4.1 18.8 2.5 3.2 0.0 0.0 0.0 0.0 0.0 0.0 0.0 0.0 0.0 0.0 0.0 0.0 0.0 0.0 0.0 0.0 0.0 0.0 0.0 0.0 0.0 0.0 0.0 0.0 0.0 0.0 0.0 0.0 0.0 0.0
0.0 0.0 0.0 0.0 2.5 0.0 0.2 9.9 27.8 36.0 37.1 20.3 0.0 1.4 0.0 0.0 0.0 0.0 0.0 0.0 0.0 0.0 0.0 0.0 0.0 0.0 0.0 0.0 0.0 0.0 0.0 0.0 0.0 0.0 0.0 0.0 0.0 0.0 0.0 0.0 0.0 0.0 0.0 0.0
4.4 5.2 0.1 0.0 1.7 0.6 1.7 11.5 15.9 16.3 10.4 4.9 0.7 6.5 0.0 0.0 0.0 0.0 0.0 0.0 0.0 0.0 0.0 0.0 0.0 0.0 0.0 0.0 0.0 0.0 0.0 0.0 0.0 0.0 0.0 0.0 0.0 0.0 0.0 0.0 0.0 0.0 0.0 0.0
3.3 1.7 0.0 0.0 0.0 4.0 6.4 13.3 3.5 12.8 4.3 6.1 5.5 0.0 0.0 0.0 0.0 0.0 0.0 0.0 0.0 0.0 0.0 0.0 0.0 0.0 0.0 0.0 0.0 0.0 0.0 0.0 0.0 0.0 0.0 0.0 0.0 0.0 0.0 0.0 0.0 0.0 0.0 0.0
2.2 3.5 0.0 0.0 0.0 0.0 7.4 3.2 11.0 16.3 16.9 8.0 4.4 1.2 1.2 0.3 0.0 1.0 0.7 0.0 0.0 0.0 0.0 0.0 0.0 0.0 0.0 0.0 0.0 0.0 0.0 0.0 0.0 0.1 0.1 0.0 0.0 0.0 0.0 0.0 0.1 0.0 0.0 0.0
1.1 3.8 1.8 0.0 1.5 3.1 9.3 11.5 9.6 8.4 7.6 12.9 8.2 2.8 1.7 0.7 1.6 2.9 1.0 0.2 0.2 0.3 0.1 0.0 0.1 0.0 0.0 0.1 0.1 0.2 0.1 0.2 0.2 0.2 0.2 0.1 0.1 0.0 0.0 0.2 0.0 0.0 0.0 0.3
2.0 8.2 9.0 2.2 1.2 0.0 1.6 4.0 6.2 14.5 7.8 4.3 7.9 4.3 0.0 0.1 0.4 0.2 0.9 0.8 0.3 0.3 0.2 0.2 0.4 0.3 0.2 0.3 0.5 0.7 0.6 0.7 0.6 0.1 0.2 0.1 0.2 0.3 0.2 0.5 0.4 0.3 0.6 0.4
7.1 13.7 18.7 13.0 1.6 0.0 1.9 0.0 1.5 7.5 11.1 12.5 13.0 6.3 0.0 0.0 1.7 0.1 0.4 0.6 1.1 0.9 0.4 0.4 0.8 0.8 1.0 1.0 0.9 1.0 0.9 0.7 0.2 0.1 0.1 0.1 0.2 0.3 0.8 1.3 1.3 7.2 5.8 9.8
1.1 12.9 14.9 8.0 3.0 1.3 1.5 1.0 1.4 11.8 23.2 15.3 9.6 8.0 2.4 6.7 8.1 2.8 1.2 1.1 1.6 1.7 1.4 1.5 1.3 1.3 1.3 1.8 2.1 1.5 1.0 0.7 0.3 0.3 0.4 0.2 0.5 0.6 1.0 1.6 10.0 6.9 10.0 8.1
0.9 21.2 6.7 3.3 2.5 2.0 2.3 2.2 4.7 6.9 7.0 14.8 8.0 8.8 13.6 14.9 19.3 14.4 9.9 7.4 4.9 5.8 4.0 3.7 4.0 3.1 2.7 2.1 1.7 2.4 1.5 1.1 1.0 0.7 1.0 1.0 1.1 4.6 4.5 12.4 10.7 12.4 10.8 10.5
5.3 10.9 2.5 4.8 1.7 1.4 1.5 1.3 1.5 2.4 6.3 4.0 3.4 5.3 2.1 4.8 10.3 12.7 12.4 11.8 10.2 10.4 11.1 10.5 10.2 3.4 3.3 3.1 2.3 3.1 2.4 2.4 1.8 1.7 2.2 1.9 4.9 6.0 12.4 10.2 9.7 9.5 8.6 9.4
10.4 17.4 18.1 17.1 2.6 3.9 14.7 1.1 0.3 3.3 3.2 6.0 8.4 10.2 7.1 8.7 12.4 16.7 13.5 11.5 12.6 13.5 13.2 11.7 8.4 6.6 4.8 3.8 4.4 4.2 3.7 3.5 3.2 6.1 3.8 15.8 13.5 13.0 11.0 11.9 10.0 8.4 4.7 10.8
21.0 22.7 26.2 27.0 11.5 35.5 1.8 0.0 0.1 0.8 2.2 4.1 5.7 7.8 5.1 14.0 9.1 11.8 11.4 11.2 13.5 13.6 14.7 15.1 14.1 11.6 11.2 12.3 13.5 16.6 16.5 10.0 17.1 12.9 13.6 15.8 13.9 10.6 9.9 10.8 11.3 11.8 8.5 11.0
3.0 18.9 38.5 41.2 20.5 4.3 1.4 0.2 0.1 1.5 2.2 1.8 2.1 2.0 1.2 3.1 0.6 4.9 11.3 14.3 14.4 14.0 15.7 15.4 15.8 16.7 16.5 15.7 15.4 15.2 16.7 19.6 18.1 18.8 18.5 15.1 15.0 15.9 13.8 13.0 13.3 9.8 7.4 6.1
4.8 6.6 38.3 41.7 32.7 16.5 0.3 0.0 0.0 0.4 3.8 2.6 3.9 2.7 2.0 0.8 2.4 6.8 11.7 12.3 12.1 13.4 15.6 17.4 17.2 16.6 13.7 14.3 10.7 8.1 11.9 11.6 13.3 14.1 14.2 14.8 13.6 12.5 10.9 9.7 10.0 10.3 8.0 7.2
22.2 36.0 53.9 36.8 34.4 9.5 1.6 0.0 0.0 4.5 5.6 3.5 2.9 1.9 1.5 1.3 6.8 8.2 8.9 8.6 10.4 11.4 13.1 12.8 11.5 10.2 11.7 14.2 6.8 7.2 7.2 7.8 9.3 8.1 8.5 9.3 9.0 7.6 6.6 5.4 5.4 4.5 5.2 5.7
4.9 20.0 27.7 27.3 30.7 20.7 1.5 1.7 2.8 3.1 2.0 2.2 1.1 0.0 0.2 0.0 1.2 3.5 4.0 4.7 5.4 6.4 8.5 8.1 4.9 6.5 10.2 10.5 3.3 4.1 3.8 6.5 5.3 3.7 3.6 3.8 3.9 4.1 4.0 1.4 2.1 1.7 2.3 2.8
2.6 4.7 4.0 6.3 7.4 1.4 1.4 3.0 4.2 4.5 3.7 0.7 0.4 0.0 0.3 0.5 0.2 0.6 1.1 1.3 1.5 1.6 1.9 2.6 1.5 1.6 2.2 2.7 0.3 0.3 3.1 2.8 2.2 1.4 1.6 2.0 1.5 1.9 2.2 1.1 1.1 1.4 1.4 1.2
2.0 2.3 2.4 1.7 1.4 0.7 2.3 2.7 2.2 2.6 0.8 0.4 1.0 0.5 0.3 0.5 0.1 0.1 0.2 0.3 0.3 0.5 0.7 1.2 0.8 0.3 0.3 0.2 0.3 0.5 0.8 0.5 1.0 1.3 0.7 0.5 0.6 0.9 0.8 0.8 0.7 1.3 1.6 1.6
0.3 1.9 2.2 2.4 0.4 0.9 1.5 2.0 1.3 0.8 0.1 0.0 1.2 1.1 0.2 0.4 0.1 0.2 0.2 0.1 0.4 0.6 0.4 0.5 0.6 0.2 0.1 0.1 0.0 0.3 0.3 0.9 1.5 1.1 0.5 0.4 0.3 0.6 0.7 1.6 1.5 1.4 2.1 2.7
1.5 1.2 1.4 0.7 0.5 0.6 0.4 0.6 0.5 0.4 0.0 0.0 0.8 1.5 0.4 0.7 1.1 1.4 1.1 0.7 1.2 1.1 1.0 0.4 0.2 0.2 0.1 0.1 0.2 0.3 0.5 0.9 1.3 1.1 0.7 0.9 1.0 0.6 0.6 1.0 1.8 1.8 1.6 2.3